| time (UTC) | temp C | wind direction | speed KPH | gust KPH | rain 1hr cm | rain 24hr cm | rain mn cm | humidity % | barometer mb |
| 20260906181008 | 31 | 153 | 3.2 | 9.7 | 0.00 | 0.00 | 0.00 | 68 | 1012.8 |
| 20260906180506 | 31 | 153 | 4.8 | 12.9 | 0.00 | 0.00 | 0.00 | 68 | 1013.0 |
| 20260906180008 | 31 | 191 | 4.8 | 12.9 | 0.00 | 0.00 | 0.00 | 69 | 1013.0 |
| 20260906175504 | 31 | 172 | 4.8 | 11.3 | 0.00 | 0.00 | 0.00 | 70 | 1013.0 |
| 20260906175003 | 31 | 205 | 4.8 | 11.3 | 0.00 | 0.00 | 0.00 | 69 | 1013.1 |
| 20260906174504 | 31 | 154 | 1.6 | 11.3 | 0.00 | 0.00 | 0.00 | 69 | 1013.1 |
| 20260906174003 | 31 | 151 | 6.4 | 12.9 | 0.00 | 0.00 | 0.00 | 70 | 1013.1 |
| 20260906173503 | 31 | 198 | 8.0 | 12.9 | 0.00 | 0.00 | 0.00 | 69 | 1013.3 |
| 20260906173004 | 30 | 206 | 3.2 | 11.3 | 0.00 | 0.00 | 0.00 | 71 | 1013.3 |
| 20260906172501 | 30 | 192 | 3.2 | 12.9 | 0.00 | 0.00 | 0.00 | 72 | 1013.3 |
| 20260906172102 | 30 | 168 | 6.4 | 12.9 | 0.00 | 0.00 | 0.00 | 72 | 1013.6 |
| 20260906171558 | 30 | 154 | 4.8 | 11.3 | 0.00 | 0.00 | 0.00 | 74 | 1013.6 |
| 20260906171057 | 30 | 150 | 4.8 | 11.3 | 0.00 | 0.00 | 0.00 | 73 | 1013.6 |
| 20260906170556 | 29 | 192 | 3.2 | 14.5 | 0.00 | 0.00 | 0.00 | 76 | 1013.6 |
| 20260906170055 | 29 | 167 | 4.8 | 14.5 | 0.00 | 0.00 | 0.00 | 76 | 1013.6 |
| 20260906165554 | 29 | 153 | 4.8 | 9.7 | 0.00 | 0.00 | 0.00 | 76 | 1013.6 |
| 20260906165055 | 29 | 133 | 3.2 | 14.5 | 0.00 | 0.00 | 0.00 | 77 | 1014.1 |
| 20260906164553 | 29 | 149 | 8.0 | 14.5 | 0.00 | 0.00 | 0.00 | 76 | 1014.1 |
| 20260906164051 | 28 | 154 | 6.4 | 12.9 | 0.00 | 0.00 | 0.00 | 77 | 1014.1 |
| 20260906163552 | 28 | 140 | 4.8 | 11.3 | 0.00 | 0.00 | 0.00 | 78 | 1014.1 |
| 20260906163050 | 28 | 173 | 6.4 | 9.7 | 0.00 | 0.00 | 0.00 | 77 | 1014.1 |
| 20260906162549 | 28 | 152 | 0.0 | 8.0 | 0.00 | 0.00 | 0.00 | 79 | 1014.1 |
| 20260906162047 | 28 | 155 | 3.2 | 6.4 | 0.00 | 0.00 | 0.00 | 79 | 1014.1 |
| 20260906161549 | 28 | 148 | 0.0 | 4.8 | 0.00 | 0.00 | 0.00 | 80 | 1014.1 |
| 20260906161044 | 28 | 149 | 0.0 | 4.8 | 0.00 | 0.00 | 0.00 | 80 | 1014.1 |
| 20260906160542 | 28 | 159 | 0.0 | 0.0 | 0.00 | 0.00 | 0.00 | 82 | 1014.3 |
| 20260906160041 | 27 | 159 | 0.0 | 1.6 | 0.00 | 0.00 | 0.00 | 82 | 1014.3 |
| 20260906155540 | 27 | 167 | 0.0 | 1.6 | 0.00 | 0.00 | 0.00 | 82 | 1014.3 |
| 20260906155040 | 27 | 169 | 0.0 | 0.0 | 0.00 | 0.00 | 0.00 | 83 | 1014.2 |
| 20260906154539 | 27 | 169 | 0.0 | 0.0 | 0.00 | 0.00 | 0.00 | 83 | 1014.2 |
| 20260906154039 | 27 | 169 | 0.0 | 0.0 | 0.00 | 0.00 | 0.00 | 83 | 1014.2 |
| 20260906153539 | 27 | 194 | 0.0 | 0.0 | 0.00 | 0.00 | 0.00 | 83 | 1014.1 |
| 20260906153038 | 27 | 180 | 0.0 | 0.0 | 0.00 | 0.00 | 0.00 | 82 | 1014.1 |
| 20260906152537 | 27 | 190 | 0.0 | 3.2 | 0.00 | 0.00 | 0.00 | 82 | 1014.1 |
| 20260906152037 | 27 | 152 | 0.0 | 6.4 | 0.00 | 0.00 | 0.00 | 81 | 1013.6 |
| 20260906151538 | 27 | 148 | 1.6 | 8.0 | 0.00 | 0.00 | 0.00 | 81 | 1013.6 |
| 20260906151037 | 27 | 136 | 1.6 | 8.0 | 0.00 | 0.00 | 0.00 | 81 | 1013.6 |
| 20260906150537 | 27 | 132 | 1.6 | 8.0 | 0.00 | 0.00 | 0.00 | 82 | 1013.6 |
| 20260906150046 | 27 | 144 | 1.6 | 8.0 | 0.00 | 0.00 | 0.00 | 82 | 1013.6 |
| 20260906145536 | 27 | 143 | 3.2 | 9.7 | 0.00 | 0.00 | 0.00 | 83 | 1013.6 |
| 20260906145035 | 27 | 139 | 0.0 | 11.3 | 0.00 | 0.00 | 0.00 | 83 | 1013.5 |
| 20260906144535 | 27 | 148 | 1.6 | 14.5 | 0.00 | 0.00 | 0.00 | 84 | 1013.5 |
| 20260906144033 | 27 | 139 | 4.8 | 14.5 | 0.00 | 0.00 | 0.00 | 84 | 1013.5 |
| 20260906143534 | 27 | 140 | 3.2 | 9.7 | 0.00 | 0.00 | 0.00 | 85 | 1013.6 |
| 20260906143032 | 27 | 148 | 3.2 | 9.7 | 0.00 | 0.00 | 0.00 | 85 | 1013.6 |
| 20260906142531 | 26 | 138 | 3.2 | 11.3 | 0.00 | 0.00 | 0.00 | 85 | 1013.6 |
| 20260906142031 | 26 | 141 | 3.2 | 11.3 | 0.00 | 0.00 | 0.00 | 85 | 1013.6 |
| 20260906141530 | 26 | 142 | 3.2 | 11.3 | 0.00 | 0.00 | 0.00 | 86 | 1013.6 |
| 20260906141030 | 26 | 142 | 3.2 | 11.3 | 0.00 | 0.00 | 0.00 | 87 | 1013.6 |
| 20260906140532 | 26 | 175 | 3.2 | 11.3 | 0.00 | 0.00 | 0.00 | 87 | 1013.7 |
| 20260906140036 | 26 | 153 | 3.2 | 11.3 | 0.00 | 0.00 | 0.00 | 88 | 1013.7 |
| 20260906135532 | 26 | 140 | 3.2 | 8.0 | 0.00 | 0.00 | 0.00 | 89 | 1013.7 |
| 20260906135030 | 26 | 140 | 1.6 | 8.0 | 0.00 | 0.00 | 0.00 | 89 | 1013.9 |
| 20260906134529 | 26 | 136 | 0.0 | 8.0 | 0.00 | 0.00 | 0.00 | 90 | 1013.9 |
| 20260906134029 | 25 | 141 | 1.6 | 6.4 | 0.00 | 0.00 | 0.00 | 90 | 1013.9 |
| 20260906133529 | 25 | 134 | 1.6 | 9.7 | 0.00 | 0.00 | 0.00 | 91 | 1013.8 |
| 20260906133028 | 25 | 141 | 1.6 | 8.0 | 0.00 | 0.00 | 0.00 | 92 | 1013.8 |
| 20260906132529 | 25 | 137 | 0.0 | 4.8 | 0.00 | 0.00 | 0.00 | 94 | 1013.8 |
| 20260906132027 | 25 | 135 | 0.0 | 4.8 | 0.00 | 0.00 | 0.00 | 94 | 1013.7 |
| 20260906131527 | 25 | 130 | 0.0 | 4.8 | 0.00 | 0.00 | 0.00 | 94 | 1013.7 |
| 20260906131030 | 24 | 134 | 0.0 | 4.8 | 0.00 | 0.00 | 0.00 | 95 | 1013.7 |
| 20260906130526 | 24 | 133 | 0.0 | 0.0 | 0.00 | 0.00 | 0.00 | 95 | 1013.7 |
| 20260906130029 | 23 | 133 | 0.0 | 0.0 | 0.00 | 0.00 | 0.00 | 95 | 1013.7 |
| 20260906125524 | 23 | 135 | 0.0 | 0.0 | 0.00 | 0.00 | 0.00 | 95 | 1013.7 |
| 20260906125023 | 23 | 135 | 0.0 | 0.0 | 0.00 | 0.00 | 0.00 | 95 | 1013.3 |
| 20260906124522 | 23 | 135 | 0.0 | 0.0 | 0.00 | 0.00 | 0.00 | 95 | 1013.3 |
| 20260906124022 | 23 | 135 | 0.0 | 0.0 | 0.00 | 0.00 | 0.00 | 95 | 1013.3 |
| 20260906123522 | 23 | 135 | 0.0 | 0.0 | 0.00 | 0.00 | 0.00 | 94 | 1013.2 |
| 20260906123030 | 23 | 135 | 0.0 | 0.0 | 0.00 | 0.00 | 0.00 | 94 | 1013.2 |
| 20260906122521 | 23 | 135 | 0.0 | 0.0 | 0.00 | 0.00 | 0.00 | 94 | 1013.2 |
| 20260906122019 | 22 | 135 | 0.0 | 0.0 | 0.00 | 0.00 | 0.00 | 94 | 1013.1 |
| 20260906121530 | 22 | 135 | 0.0 | 0.0 | 0.00 | 0.00 | 0.00 | 94 | 1013.1 |
| 20260906121016 | 22 | 135 | 0.0 | 0.0 | 0.00 | 0.00 | 0.00 | 94 | 1013.1 |
| 20260906120515 | 22 | 135 | 0.0 | 0.0 | 0.00 | 0.00 | 0.00 | 94 | 1013.0 |
| 20260906120014 | 22 | 135 | 0.0 | 0.0 | 0.00 | 0.00 | 0.00 | 94 | 1013.0 |
| 20260906115514 | 22 | 135 | 0.0 | 0.0 | 0.00 | 0.00 | 0.00 | 94 | 1013.0 |
| 20260906115014 | 22 | 135 | 0.0 | 0.0 | 0.00 | 0.00 | 0.00 | 94 | 1012.7 |
| 20260906114517 | 22 | 135 | 0.0 | 0.0 | 0.00 | 0.00 | 0.00 | 94 | 1012.7 |
| 20260906114013 | 22 | 135 | 0.0 | 0.0 | 0.00 | 0.00 | 0.00 | 94 | 1012.7 |
| 20260906113513 | 22 | 135 | 0.0 | 0.0 | 0.00 | 0.00 | 0.00 | 94 | 1012.7 |
| 20260906113035 | 22 | 135 | 0.0 | 0.0 | 0.00 | 0.00 | 0.00 | 94 | 1012.7 |
| 20260906112513 | 22 | 135 | 0.0 | 0.0 | 0.00 | 0.00 | 0.00 | 94 | 1012.7 |
| 20260906112013 | 22 | 135 | 0.0 | 0.0 | 0.00 | 0.00 | 0.00 | 94 | 1012.8 |
| 20260906111514 | 22 | 135 | 0.0 | 0.0 | 0.00 | 0.00 | 0.00 | 94 | 1012.8 |
| 20260906111012 | 22 | 135 | 0.0 | 0.0 | 0.00 | 0.00 | 0.00 | 94 | 1012.8 |
| 20260906110513 | 22 | 135 | 0.0 | 0.0 | 0.00 | 0.00 | 0.00 | 94 | 1012.9 |
| 20260906110012 | 22 | 135 | 0.0 | 0.0 | 0.00 | 0.00 | 0.00 | 94 | 1012.9 |
| 20260906105512 | 22 | 135 | 0.0 | 0.0 | 0.00 | 0.00 | 0.00 | 93 | 1012.9 |
| 20260906105012 | 22 | 135 | 0.0 | 0.0 | 0.00 | 0.00 | 0.00 | 93 | 1012.6 |
| 20260906104515 | 22 | 135 | 0.0 | 0.0 | 0.00 | 0.00 | 0.00 | 93 | 1012.6 |
| 20260906104011 | 22 | 135 | 0.0 | 0.0 | 0.00 | 0.00 | 0.00 | 93 | 1012.6 |
| 20260906103510 | 22 | 135 | 0.0 | 0.0 | 0.00 | 0.00 | 0.00 | 93 | 1012.5 |
| 20260906103011 | 22 | 135 | 0.0 | 0.0 | 0.00 | 0.00 | 0.00 | 93 | 1012.5 |
| 20260906102512 | 22 | 135 | 0.0 | 0.0 | 0.00 | 0.00 | 0.00 | 93 | 1012.5 |
| 20260906102011 | 22 | 135 | 0.0 | 0.0 | 0.00 | 0.00 | 0.00 | 93 | 1012.3 |
| 20260906101511 | 22 | 135 | 0.0 | 0.0 | 0.00 | 0.00 | 0.00 | 93 | 1012.3 |
| 20260906101010 | 22 | 135 | 0.0 | 0.0 | 0.00 | 0.00 | 0.00 | 93 | 1012.3 |
| 20260906100510 | 22 | 135 | 0.0 | 0.0 | 0.00 | 0.00 | 0.00 | 93 | 1012.2 |
| 20260906100016 | 22 | 135 | 0.0 | 0.0 | 0.00 | 0.00 | 0.00 | 92 | 1012.2 |
| 20260906095509 | 22 | 135 | 0.0 | 0.0 | 0.00 | 0.00 | 0.00 | 92 | 1012.2 |
| 20260906095009 | 22 | 135 | 0.0 | 0.0 | 0.00 | 0.00 | 0.00 | 92 | 1012.4 |
| 20260906094509 | 23 | 135 | 0.0 | 0.0 | 0.00 | 0.00 | 0.00 | 92 | 1012.4 |
| 20260906094008 | 23 | 135 | 0.0 | 0.0 | 0.00 | 0.00 | 0.00 | 92 | 1012.4 |
| 20260906093509 | 23 | 135 | 0.0 | 0.0 | 0.00 | 0.00 | 0.00 | 92 | 1012.4 |
| 20260906093009 | 23 | 135 | 0.0 | 0.0 | 0.00 | 0.00 | 0.00 | 92 | 1012.4 |
| 20260906092508 | 23 | 135 | 0.0 | 0.0 | 0.00 | 0.00 | 0.00 | 92 | 1012.4 |
| 20260906092011 | 23 | 135 | 0.0 | 0.0 | 0.00 | 0.00 | 0.00 | 91 | 1012.3 |
| 20260906091515 | 23 | 135 | 0.0 | 0.0 | 0.00 | 0.00 | 0.00 | 91 | 1012.3 |
| 20260906091006 | 23 | 135 | 0.0 | 0.0 | 0.00 | 0.00 | 0.00 | 91 | 1012.3 |
| 20260906090505 | 23 | 135 | 0.0 | 0.0 | 0.00 | 0.00 | 0.00 | 90 | 1012.4 |
| 20260906090006 | 23 | 135 | 0.0 | 0.0 | 0.00 | 0.00 | 0.00 | 89 | 1012.4 |
| 20260906085505 | 23 | 135 | 0.0 | 0.0 | 0.00 | 0.00 | 0.00 | 89 | 1012.4 |
| 20260906085003 | 23 | 135 | 0.0 | 0.0 | 0.00 | 0.00 | 0.00 | 89 | 1012.3 |
| 20260906084502 | 23 | 135 | 0.0 | 0.0 | 0.00 | 0.00 | 0.00 | 89 | 1012.3 |
| 20260906084005 | 23 | 135 | 0.0 | 0.0 | 0.00 | 0.00 | 0.00 | 89 | 1012.3 |
| 20260906083600 | 24 | 135 | 0.0 | 0.0 | 0.00 | 0.00 | 0.00 | 88 | 1012.1 |
| 20260906083059 | 24 | 135 | 0.0 | 0.0 | 0.00 | 0.00 | 0.00 | 88 | 1012.1 |
| 20260906082559 | 24 | 135 | 0.0 | 0.0 | 0.00 | 0.00 | 0.00 | 88 | 1012.1 |
| 20260906082059 | 24 | 135 | 0.0 | 1.6 | 0.00 | 0.00 | 0.00 | 88 | 1012.0 |
| 20260906081612 | 24 | 135 | 0.0 | 1.6 | 0.00 | 0.00 | 0.00 | 88 | 1012.0 |
| 20260906081058 | 25 | 136 | 0.0 | 3.2 | 0.00 | 0.00 | 0.00 | 88 | 1012.0 |
| 20260906080558 | 25 | 135 | 0.0 | 4.8 | 0.00 | 0.00 | 0.00 | 88 | 1012.0 |
| 20260906080104 | 25 | 135 | 1.6 | 6.4 | 0.00 | 0.00 | 0.00 | 88 | 1012.0 |
| 20260906075558 | 25 | 135 | 1.6 | 6.4 | 0.00 | 0.00 | 0.00 | 88 | 1012.0 |
| 20260906075057 | 25 | 155 | 0.0 | 4.8 | 0.00 | 0.00 | 0.00 | 88 | 1012.1 |
| 20260906074612 | 25 | 133 | 0.0 | 0.0 | 0.00 | 0.00 | 0.00 | 88 | 1012.1 |
| 20260906074057 | 25 | 134 | 0.0 | 3.2 | 0.00 | 0.00 | 0.00 | 88 | 1012.1 |
| 20260906073557 | 25 | 134 | 0.0 | 3.2 | 0.00 | 0.00 | 0.00 | 88 | 1012.1 |
| 20260906073100 | 25 | 134 | 0.0 | 4.8 | 0.00 | 0.00 | 0.00 | 88 | 1012.1 |
| 20260906072557 | 25 | 134 | 0.0 | 4.8 | 0.00 | 0.00 | 0.00 | 88 | 1012.1 |
| 20260906072101 | 25 | 134 | 0.0 | 0.0 | 0.00 | 0.00 | 0.00 | 89 | 1012.1 |
| 20260906071558 | 25 | 136 | 0.0 | 0.0 | 0.00 | 0.00 | 0.00 | 89 | 1012.1 |
| 20260906071056 | 24 | 138 | 0.0 | 0.0 | 0.00 | 0.00 | 0.00 | 89 | 1012.1 |
| 20260906070556 | 24 | 134 | 0.0 | 0.0 | 0.00 | 0.00 | 0.00 | 89 | 1012.4 |
| 20260906070056 | 24 | 134 | 0.0 | 0.0 | 0.00 | 0.00 | 0.00 | 89 | 1012.4 |
| 20260906065557 | 24 | 136 | 0.0 | 0.0 | 0.00 | 0.00 | 0.00 | 89 | 1012.4 |
| 20260906065054 | 24 | 136 | 0.0 | 0.0 | 0.00 | 0.00 | 0.00 | 88 | 1012.6 |
| 20260906064554 | 24 | 136 | 0.0 | 0.0 | 0.00 | 0.00 | 0.00 | 87 | 1012.6 |
| 20260906064053 | 25 | 136 | 0.0 | 0.0 | 0.00 | 0.00 | 0.00 | 87 | 1012.6 |
| 20260906063551 | 25 | 136 | 0.0 | 0.0 | 0.00 | 0.00 | 0.00 | 86 | 1012.5 |
| 20260906063051 | 25 | 136 | 0.0 | 0.0 | 0.00 | 0.00 | 0.00 | 85 | 1012.5 |
| 20260906062549 | 25 | 136 | 0.0 | 0.0 | 0.00 | 0.00 | 0.00 | 85 | 1012.5 |
| 20260906062053 | 25 | 136 | 0.0 | 0.0 | 0.00 | 0.00 | 0.00 | 85 | 1012.5 |
| 20260906061555 | 25 | 136 | 0.0 | 0.0 | 0.00 | 0.00 | 0.00 | 85 | 1012.5 |
| 20260906061046 | 26 | 136 | 0.0 | 0.0 | 0.00 | 0.00 | 0.00 | 85 | 1012.5 |
| 20260906060546 | 26 | 136 | 0.0 | 0.0 | 0.00 | 0.00 | 0.00 | 84 | 1012.5 |
| 20260906060045 | 26 | 136 | 0.0 | 0.0 | 0.00 | 0.00 | 0.00 | 84 | 1012.5 |
| 20260906055543 | 26 | 135 | 0.0 | 0.0 | 0.00 | 0.00 | 0.00 | 83 | 1012.5 |
| 20260906055043 | 26 | 139 | 0.0 | 0.0 | 0.00 | 0.00 | 0.00 | 83 | 1012.6 |
| 20260906054542 | 26 | 146 | 0.0 | 0.0 | 0.00 | 0.00 | 0.00 | 83 | 1012.6 |
| 20260906054041 | 26 | 142 | 0.0 | 4.8 | 0.00 | 0.00 | 0.00 | 83 | 1012.6 |
| 20260906053540 | 26 | 135 | 0.0 | 4.8 | 0.00 | 0.00 | 0.00 | 83 | 1012.5 |
| 20260906053040 | 26 | 134 | 0.0 | 3.2 | 0.00 | 0.00 | 0.00 | 82 | 1012.5 |
| 20260906052540 | 26 | 133 | 0.0 | 4.8 | 0.00 | 0.00 | 0.00 | 82 | 1012.5 |
| 20260906052039 | 26 | 132 | 0.0 | 3.2 | 0.00 | 0.00 | 0.00 | 82 | 1012.5 |
| 20260906051546 | 26 | 133 | 0.0 | 3.2 | 0.00 | 0.00 | 0.00 | 82 | 1012.5 |
| 20260906051038 | 27 | 133 | 0.0 | 6.4 | 0.00 | 0.00 | 0.00 | 82 | 1012.5 |
| 20260906050541 | 27 | 132 | 0.0 | 6.4 | 0.00 | 0.00 | 0.00 | 82 | 1012.4 |
| 20260906050045 | 27 | 136 | 0.0 | 3.2 | 0.00 | 0.00 | 0.00 | 82 | 1012.4 |
| 20260906045540 | 27 | 133 | 0.0 | 1.6 | 0.00 | 0.00 | 0.00 | 82 | 1012.4 |
| 20260906045037 | 27 | 130 | 0.0 | 1.6 | 0.00 | 0.00 | 0.00 | 82 | 1012.3 |
| 20260906044539 | 27 | 134 | 0.0 | 4.8 | 0.00 | 0.00 | 0.00 | 82 | 1012.3 |
| 20260906044037 | 27 | 134 | 0.0 | 4.8 | 0.00 | 0.00 | 0.00 | 82 | 1012.3 |
| 20260906043537 | 27 | 132 | 0.0 | 0.0 | 0.00 | 0.00 | 0.00 | 82 | 1012.4 |
| 20260906043037 | 27 | 132 | 0.0 | 1.6 | 0.00 | 0.00 | 0.00 | 82 | 1012.4 |
| 20260906042536 | 27 | 125 | 0.0 | 1.6 | 0.00 | 0.00 | 0.00 | 82 | 1012.4 |
| 20260906042036 | 27 | 131 | 0.0 | 0.0 | 0.00 | 0.00 | 0.00 | 82 | 1012.4 |
| 20260906041541 | 27 | 131 | 0.0 | 0.0 | 0.00 | 0.00 | 0.00 | 82 | 1012.4 |
| 20260906041036 | 27 | 130 | 0.0 | 3.2 | 0.00 | 0.00 | 0.00 | 82 | 1012.4 |
| 20260906040535 | 27 | 130 | 0.0 | 3.2 | 0.00 | 0.00 | 0.00 | 82 | 1012.4 |
| 20260906040037 | 27 | 132 | 0.0 | 1.6 | 0.00 | 0.00 | 0.00 | 82 | 1012.4 |
| 20260906035535 | 27 | 132 | 0.0 | 3.2 | 0.00 | 0.00 | 0.00 | 82 | 1012.4 |
| 20260906035035 | 27 | 131 | 0.0 | 1.6 | 0.00 | 0.00 | 0.00 | 82 | 1012.3 |
| 20260906034536 | 27 | 132 | 0.0 | 1.6 | 0.00 | 0.00 | 0.00 | 82 | 1012.3 |
| 20260906034035 | 27 | 132 | 0.0 | 1.6 | 0.00 | 0.00 | 0.00 | 82 | 1012.3 |
| 20260906033535 | 27 | 132 | 0.0 | 1.6 | 0.00 | 0.00 | 0.00 | 82 | 1012.2 |
| 20260906033044 | 27 | 132 | 0.0 | 0.0 | 0.00 | 0.00 | 0.00 | 82 | 1012.2 |
| 20260906032534 | 27 | 132 | 0.0 | 0.0 | 0.00 | 0.00 | 0.00 | 82 | 1012.2 |
| 20260906032037 | 27 | 132 | 0.0 | 1.6 | 0.00 | 0.00 | 0.00 | 81 | 1011.8 |
| 20260906031537 | 27 | 132 | 0.0 | 1.6 | 0.00 | 0.00 | 0.00 | 81 | 1011.8 |
| 20260906031034 | 27 | 132 | 0.0 | 1.6 | 0.00 | 0.00 | 0.00 | 81 | 1011.8 |
| 20260906030534 | 27 | 130 | 0.0 | 1.6 | 0.00 | 0.00 | 0.00 | 81 | 1011.5 |
| 20260906030035 | 27 | 130 | 0.0 | 1.6 | 0.00 | 0.00 | 0.00 | 81 | 1011.5 |
| 20260906025533 | 27 | 132 | 0.0 | 3.2 | 0.00 | 0.00 | 0.00 | 81 | 1011.5 |
| 20260906025035 | 28 | 131 | 0.0 | 1.6 | 0.00 | 0.00 | 0.00 | 81 | 1011.4 |
| 20260906024534 | 28 | 131 | 0.0 | 1.6 | 0.00 | 0.00 | 0.00 | 81 | 1011.4 |
| 20260906024033 | 28 | 131 | 0.0 | 1.6 | 0.00 | 0.00 | 0.00 | 81 | 1011.4 |
| 20260906023535 | 28 | 129 | 0.0 | 1.6 | 0.00 | 0.00 | 0.00 | 81 | 1011.3 |
| 20260906023036 | 28 | 130 | 0.0 | 1.6 | 0.00 | 0.00 | 0.00 | 81 | 1011.3 |
| 20260906022534 | 28 | 131 | 0.0 | 1.6 | 0.00 | 0.00 | 0.00 | 80 | 1011.3 |
| 20260906022033 | 28 | 130 | 0.0 | 1.6 | 0.00 | 0.00 | 0.00 | 80 | 1010.9 |
| 20260906021533 | 28 | 130 | 0.0 | 1.6 | 0.00 | 0.00 | 0.00 | 80 | 1010.9 |
| 20260906021032 | 28 | 129 | 0.0 | 1.6 | 0.00 | 0.00 | 0.00 | 80 | 1010.9 |
| 20260906020532 | 28 | 130 | 0.0 | 1.6 | 0.00 | 0.00 | 0.00 | 80 | 1010.7 |
| 20260906020033 | 28 | 127 | 0.0 | 1.6 | 0.00 | 0.00 | 0.00 | 80 | 1010.7 |
| 20260906015532 | 28 | 127 | 0.0 | 1.6 | 0.00 | 0.00 | 0.00 | 80 | 1010.7 |
| 20260906015032 | 28 | 126 | 0.0 | 1.6 | 0.00 | 0.00 | 0.00 | 80 | 1010.5 |
| 20260906014533 | 28 | 126 | 0.0 | 1.6 | 0.00 | 0.00 | 0.00 | 79 | 1010.5 |
| 20260906014031 | 28 | 126 | 0.0 | 0.0 | 0.00 | 0.00 | 0.00 | 79 | 1010.5 |
| 20260906013532 | 28 | 126 | 0.0 | 0.0 | 0.00 | 0.00 | 0.00 | 78 | 1010.4 |
| 20260906013032 | 29 | 126 | 0.0 | 0.0 | 0.00 | 0.00 | 0.00 | 77 | 1010.4 |
| 20260906012535 | 29 | 126 | 0.0 | 0.0 | 0.00 | 0.00 | 0.00 | 76 | 1010.4 |
| 20260906012031 | 29 | 126 | 0.0 | 1.6 | 0.00 | 0.00 | 0.00 | 76 | 1010.3 |
| 20260906011536 | 30 | 126 | 0.0 | 3.2 | 0.00 | 0.00 | 0.00 | 75 | 1010.3 |
| 20260906011031 | 30 | 126 | 1.6 | 3.2 | 0.00 | 0.00 | 0.00 | 74 | 1010.3 |
| 20260906010530 | 30 | 126 | 0.0 | 1.6 | 0.00 | 0.00 | 0.00 | 74 | 1010.0 |
| 20260906010032 | 30 | 126 | 0.0 | 1.6 | 0.00 | 0.00 | 0.00 | 73 | 1010.0 |
| 20260906005530 | 30 | 126 | 0.0 | 1.6 | 0.00 | 0.00 | 0.00 | 73 | 1010.0 |
| 20260906005030 | 30 | 126 | 0.0 | 4.8 | 0.00 | 0.00 | 0.00 | 72 | 1009.9 |
| 20260906004530 | 31 | 126 | 0.0 | 4.8 | 0.00 | 0.00 | 0.00 | 72 | 1009.9 |
| 20260906004030 | 31 | 131 | 0.0 | 4.8 | 0.00 | 0.00 | 0.00 | 72 | 1009.9 |
| 20260906003530 | 31 | 132 | 0.0 | 3.2 | 0.00 | 0.00 | 0.00 | 71 | 1010.0 |
| 20260906003030 | 31 | 132 | 0.0 | 3.2 | 0.00 | 0.00 | 0.00 | 70 | 1010.0 |
| 20260906002529 | 31 | 132 | 0.0 | 4.8 | 0.00 | 0.00 | 0.00 | 69 | 1010.0 |
| 20260906002030 | 32 | 132 | 0.0 | 4.8 | 0.00 | 0.00 | 0.00 | 69 | 1010.0 |
| 20260906001529 | 32 | 132 | 0.0 | 4.8 | 0.00 | 0.00 | 0.00 | 68 | 1010.0 |
| 20260906001029 | 32 | 132 | 1.6 | 4.8 | 0.00 | 0.00 | 0.00 | 67 | 1010.0 |
| 20260906000529 | 32 | 132 | 0.0 | 6.4 | 0.00 | 0.00 | 0.00 | 67 | 1010.0 |
| 20260906000028 | 32 | 131 | 1.6 | 6.4 | 0.00 | 0.00 | 0.00 | 65 | 1010.0 |
| 20260905235528 | 32 | 131 | 3.2 | 6.4 | 0.00 | 0.00 | 0.00 | 65 | 1010.0 |
| 20260905235029 | 33 | 130 | 1.6 | 8.0 | 0.00 | 0.00 | 0.00 | 64 | 1010.0 |
| 20260905234528 | 33 | 128 | 1.6 | 8.0 | 0.00 | 0.00 | 0.00 | 65 | 1010.0 |
| 20260905234028 | 33 | 132 | 1.6 | 6.4 | 0.00 | 0.00 | 0.00 | 64 | 1010.0 |
| 20260905233528 | 33 | 127 | 1.6 | 6.4 | 0.00 | 0.00 | 0.00 | 64 | 1009.9 |
| 20260905233028 | 33 | 144 | 0.0 | 8.0 | 0.00 | 0.00 | 0.00 | 64 | 1009.9 |
| 20260905232528 | 33 | 126 | 0.0 | 8.0 | 0.00 | 0.00 | 0.00 | 64 | 1009.9 |
| 20260905232028 | 33 | 148 | 3.2 | 8.0 | 0.00 | 0.00 | 0.00 | 64 | 1009.9 |
| 20260905231528 | 33 | 130 | 4.8 | 9.7 | 0.00 | 0.00 | 0.00 | 63 | 1009.9 |
| 20260905231027 | 33 | 128 | 4.8 | 9.7 | 0.00 | 0.00 | 0.00 | 62 | 1009.9 |
| 20260905230527 | 33 | 132 | 3.2 | 9.7 | 0.00 | 0.00 | 0.00 | 63 | 1009.9 |
| 20260905230029 | 33 | 142 | 3.2 | 11.3 | 0.00 | 0.00 | 0.00 | 63 | 1009.9 |
| 20260905225526 | 33 | 128 | 4.8 | 12.9 | 0.00 | 0.00 | 0.00 | 61 | 1009.9 |
| 20260905225027 | 33 | 143 | 6.4 | 12.9 | 0.00 | 0.00 | 0.00 | 61 | 1009.8 |
| 20260905224533 | 33 | 189 | 4.8 | 12.9 | 0.00 | 0.00 | 0.00 | 61 | 1009.8 |
| 20260905224027 | 33 | 157 | 6.4 | 12.9 | 0.00 | 0.00 | 0.00 | 61 | 1009.8 |
| 20260905223526 | 33 | 121 | 4.8 | 11.3 | 0.00 | 0.00 | 0.00 | 62 | 1009.6 |
| 20260905223026 | 33 | 156 | 3.2 | 9.7 | 0.00 | 0.00 | 0.00 | 63 | 1009.6 |
| 20260905222526 | 33 | 119 | 1.6 | 11.3 | 0.00 | 0.00 | 0.00 | 64 | 1009.6 |
| 20260905222025 | 33 | 123 | 4.8 | 16.1 | 0.00 | 0.00 | 0.00 | 63 | 1009.6 |
| 20260905221525 | 33 | 129 | 6.4 | 16.1 | 0.00 | 0.00 | 0.00 | 62 | 1009.6 |
| 20260905221033 | 33 | 150 | 6.4 | 14.5 | 0.00 | 0.00 | 0.00 | 62 | 1009.6 |
| 20260905220524 | 33 | 162 | 4.8 | 12.9 | 0.00 | 0.00 | 0.00 | 62 | 1009.9 |
| 20260905220024 | 33 | 129 | 8.0 | 14.5 | 0.00 | 0.00 | 0.00 | 61 | 1009.9 |
| 20260905215525 | 33 | 142 | 4.8 | 14.5 | 0.00 | 0.00 | 0.00 | 60 | 1009.9 |
| 20260905215023 | 33 | 142 | 4.8 | 12.9 | 0.00 | 0.00 | 0.00 | 61 | 1009.9 |
| 20260905214523 | 33 | 158 | 4.8 | 12.9 | 0.00 | 0.00 | 0.00 | 61 | 1009.9 |
| 20260905214023 | 33 | 147 | 3.2 | 14.5 | 0.00 | 0.00 | 0.00 | 62 | 1009.9 |
| 20260905213522 | 33 | 87 | 6.4 | 14.5 | 0.00 | 0.00 | 0.00 | 60 | 1010.4 |
| 20260905213022 | 33 | 124 | 3.2 | 12.9 | 0.00 | 0.00 | 0.00 | 60 | 1010.4 |
| 20260905212525 | 33 | 155 | 6.4 | 12.9 | 0.00 | 0.00 | 0.00 | 59 | 1010.4 |
| 20260905212020 | 33 | 130 | 4.8 | 11.3 | 0.00 | 0.00 | 0.00 | 61 | 1010.5 |
| 20260905211520 | 33 | 133 | 3.2 | 14.5 | 0.00 | 0.00 | 0.00 | 60 | 1010.5 |
| 20260905211020 | 33 | 160 | 4.8 | 14.5 | 0.00 | 0.00 | 0.00 | 59 | 1010.5 |
| 20260905210524 | 33 | 108 | 1.6 | 8.0 | 0.00 | 0.00 | 0.00 | 60 | 1010.9 |
| 20260905210019 | 33 | 65 | 3.2 | 8.0 | 0.00 | 0.00 | 0.00 | 59 | 1010.9 |
| 20260905205518 | 32 | 96 | 1.6 | 12.9 | 0.00 | 0.00 | 0.00 | 61 | 1010.9 |
| 20260905205019 | 32 | 74 | 4.8 | 12.9 | 0.00 | 0.00 | 0.00 | 59 | 1011.0 |
| 20260905204520 | 32 | 111 | 3.2 | 12.9 | 0.00 | 0.00 | 0.00 | 59 | 1011.0 |
| 20260905204018 | 32 | 99 | 3.2 | 12.9 | 0.00 | 0.00 | 0.00 | 58 | 1011.0 |
| 20260905203518 | 32 | 105 | 3.2 | 14.5 | 0.00 | 0.00 | 0.00 | 59 | 1011.5 |
| 20260905203018 | 32 | 91 | 4.8 | 14.5 | 0.00 | 0.00 | 0.00 | 58 | 1011.5 |
| 20260905202519 | 32 | 80 | 8.0 | 14.5 | 0.00 | 0.00 | 0.00 | 57 | 1011.5 |
| 20260905202019 | 32 | 74 | 8.0 | 14.5 | 0.00 | 0.00 | 0.00 | 59 | 1012.0 |
| 20260905201517 | 32 | 67 | 4.8 | 16.1 | 0.00 | 0.00 | 0.00 | 60 | 1012.0 |
| 20260905201020 | 32 | 64 | 6.4 | 17.7 | 0.00 | 0.00 | 0.00 | 59 | 1012.0 |
| 20260905200517 | 32 | 62 | 8.0 | 17.7 | 0.00 | 0.00 | 0.00 | 59 | 1012.0 |
| 20260905200017 | 32 | 61 | 6.4 | 16.1 | 0.00 | 0.00 | 0.00 | 60 | 1012.0 |
| 20260905195516 | 32 | 70 | 6.4 | 22.5 | 0.00 | 0.00 | 0.00 | 60 | 1012.0 |
| 20260905195019 | 32 | 98 | 8.0 | 22.5 | 0.00 | 0.00 | 0.00 | 60 | 1012.1 |
| 20260905194516 | 32 | 71 | 8.0 | 22.5 | 0.00 | 0.00 | 0.00 | 61 | 1012.1 |
| 20260905194017 | 32 | 81 | 4.8 | 14.5 | 0.00 | 0.00 | 0.00 | 62 | 1012.1 |
| 20260905193516 | 32 | 79 | 4.8 | 17.7 | 0.00 | 0.00 | 0.00 | 62 | 1012.5 |
| 20260905193016 | 32 | 56 | 6.4 | 12.9 | 0.00 | 0.00 | 0.00 | 61 | 1012.5 |
| 20260905192516 | 32 | 142 | 3.2 | 17.7 | 0.00 | 0.00 | 0.00 | 64 | 1012.5 |
| 20260905192016 | 32 | 94 | 6.4 | 17.7 | 0.00 | 0.00 | 0.00 | 64 | 1012.7 |
| 20260905191515 | 32 | 109 | 8.0 | 16.1 | 0.00 | 0.00 | 0.00 | 64 | 1012.7 |
| 20260905191015 | 32 | 101 | 6.4 | 20.9 | 0.00 | 0.00 | 0.00 | 66 | 1012.7 |
| 20260905190514 | 31 | 77 | 6.4 | 20.9 | 0.00 | 0.00 | 0.00 | 66 | 1013.1 |
| 20260905190015 | 31 | 47 | 8.0 | 19.3 | 0.00 | 0.00 | 0.00 | 65 | 1013.1 |
| 20260905185515 | 31 | 59 | 9.7 | 19.3 | 0.00 | 0.00 | 0.00 | 65 | 1013.1 |
| 20260905185014 | 31 | 74 | 6.4 | 20.9 | 0.00 | 0.00 | 0.00 | 64 | 1013.6 |
| 20260905184514 | 31 | 38 | 12.9 | 24.1 | 0.00 | 0.00 | 0.00 | 65 | 1013.6 |
| 20260905184014 | 31 | 46 | 14.5 | 24.1 | 0.00 | 0.00 | 0.00 | 63 | 1013.6 |
| 20260905183513 | 31 | 51 | 11.3 | 24.1 | 0.00 | 0.00 | 0.00 | 65 | 1013.5 |
| 20260905183013 | 31 | 59 | 12.9 | 25.7 | 0.00 | 0.00 | 0.00 | 65 | 1013.5 |
| 20260905182513 | 31 | 42 | 11.3 | 25.7 | 0.00 | 0.00 | 0.00 | 65 | 1013.5 |
| 20260905182013 | 32 | 38 | 11.3 | 22.5 | 0.00 | 0.00 | 0.00 | 65 | 1013.2 |
| 20260905181512 | 32 | 35 | 12.9 | 22.5 | 0.00 | 0.00 | 0.00 | 63 | 1013.2 |